Regional Weather Roundup
Issued by NWS

Home | Current Version | Previous Version | Text Only | Print | Product List | Glossary Off
Versions: 1 2 3 4 5 6 7 8 9 10 11 12 13 14 15 16 17 18 19 20 21 22 23 24 25 26 27 28 29 30 31 32 33 34 35 36 37 38 39 40 41 42 43 44 45 46 47 48 49 50

000
ASUS43 KTOP 180659
RWRKS

WEATHER ROUNDUP FOR KANSAS
NATIONAL WEATHER SERVICE GOODLAND KS
100 AM CST WED JAN 18 2017

NOTE:  "FAIR" INDICATES FEW OR NO CLOUDS BELOW 12,000 FEET WITH NO
SIGNIFICANT WEATHER AND/OR OBSTRUCTIONS TO VISIBILITY.

KSZ001>006-013>018-027>032-041>047-180800-
NORTHWEST KANSAS

CITY           SKY/WX    TMP DP  RH WIND       PRES   REMARKS
GOODLAND       CLEAR     32  29  88 SW12      30.02F WCI  23
HAYS           PTCLDY    31  27  85 SW7       30.11R
HILL CITY      CLEAR     31  28  89 W7        30.07F
RUSSELL        PTCLDY    32  28  85 SW12      30.10R WCI  23
$$

KSZ061>065-074>080-084>089-180800-
SOUTHWEST KANSAS

CITY           SKY/WX    TMP DP  RH WIND       PRES   REMARKS
DODGE CITY     CLOUDY    31  28  89 S9        30.11F
ELKHART          N/A     35  27  73 S9          N/A
GARDEN CITY    CLOUDY    31  28  89 S9        30.09F
GREAT BEND     PTCLDY    33  30  88 S6        30.13S
LIBERAL        PTCLDY    34  28  80 S8        30.11S
$$

KSZ066>073-081>083-090>101-180800-
SOUTHEAST KANSAS

CITY           SKY/WX    TMP DP  RH WIND       PRES   REMARKS
CHANUTE        PTCLDY    34  33  96 S6        30.17F
COFFEYVILLE    CLOUDY    34  32  92 E3        30.17F
HUTCHINSON     CLOUDY    33  30  88 CALM      30.13F
MEDICINE LODGE   N/A     35  31  85 N3        30.13F
NEWTON         PTCLDY    37  32  82 SW8       30.14F
PARSONS        CLOUDY    33  32  96 CALM      30.17F
WICHITA JABRA  CLOUDY    40  32  73 SW9       30.14F
WINFIELD       CLOUDY    40  32  73 CALM      30.15F
$$

KSZ007>012-019>026-033>040-048>060-102>105-180800-
NORTHEAST KANSAS

CITY           SKY/WX    TMP DP  RH WIND       PRES   REMARKS
CONCORDIA      CLOUDY    35  30  82 SW8       30.09F
EMPORIA        CLOUDY    30  29  96 S7        30.15S
LAWRENCE       CLOUDY    28  28 100 SE6       30.16S FOG
MANHATTAN      CLOUDY    24  22  91 SW3       30.13F
OLATHE IND     FOG       30  30 100 S8        30.16F VSB 1/2
OLATHE EXE     CLOUDY    30  30 100 SW5       30.16F FOG
SALINA           N/A    N/A N/A N/A MISG        N/A
TOPEKA BILLARD FOG       26  23  88 CALM      30.15S VSB 1
TOPEKA FORBES  CLOUDY    30  28  92 S7        30.14F
$$




USA.gov is the U.S. government's official web portal to all federal, state and local government web resources and services.